[[{"header":{"parameterUnit":"m.s-1","parameterCategory":1,"la1":30.2991,"la2":30.254,"lo1":-89.0895,"lo2":-89.0444,"dy":0.0017,"dx":0.0017,"nx":28,"ny":28,"refTime":"2024-02-17T09:00:00:Z","depth":0,"parameterNumber":2,"parameterNumberName":"U-component_of_WINDS"},"data":[0,0,0,0,0,0,0,0,0,0,0,0,0,0,0,0,0,0,0,0,0,0,0,0,0,0,0,0,0,0,0,0,0,0,0,0,0,0,0,0,0,0,0,0,0,0,0,0,0,0,0,0,0,0,0,0,0,0,1.3057,1.3058,0,1.3137,1.3138,1.3139,1.3135,1.3133,1.3132,1.3131,1.3212,1.3216,1.3219,0,0,0,0,0,0,0,0,0,0,0,0,0,1.2902,1.2905,1.3057,1.3058,1.3059,1.3137,1.3138,1.3139,1.3135,1.3133,1.3132,1.3131,1.3211,1.3215,1.3219,0,0,0,0,0,0,0,0,0,0,0,0,0,1.2974,1.2906,1.3057,1.3066,1.3068,1.3136,1.3138,1.3139,1.3135,1.3133,1.3132,1.313,1.321,1.3215,1.322,1.3284,0,0,1.3234,1.3236,0,0,0,0,0,0,0,0,1.297,1.298,1.3064,1.3066,1.3068,1.3124,1.3113,1.3187,1.3136,1.311,1.3131,1.3129,1.3184,1.3191,1.321,1.3287,1.3291,1.3235,1.3238,1.324,1.3241,0,0,0,0,0,0,0,1.2965,1.2976,1.3088,1.3065,1.3068,1.3067,1.3075,1.3127,1.3156,1.3112,1.3112,1.3121,1.3185,1.3205,1.3212,1.3292,1.3235,1.3239,1.3242,1.3244,1.3427,1.3429,0,0,0,0,0,0,1.2958,1.2972,1.3086,1.3091,1.3014,1.3071,1.308,1.3108,1.3155,1.3161,1.3123,1.3121,1.3198,1.3206,1.3215,1.3293,1.324,1.3244,1.3247,1.3425,1.3427,1.343,0,0,0,0,0,0,1.2955,1.2968,1.3083,1.3032,1.3046,1.3075,1.3106,1.311,1.313,1.3163,1.3168,1.3138,1.3197,1.3208,1.3267,1.3296,1.3246,1.3251,1.3423,1.3426,1.3429,1.345,0,0,0,0,0,0,1.295,1.2967,1.2991,1.3032,1.3049,1.3133,1.3108,1.3113,1.3139,1.3137,1.3179,1.3184,1.3196,1.326,1.3271,1.3302,1.3255,1.342,1.3424,1.3428,1.3447,1.3454,1.3459,0,0,0,0,0,1.2945,1.2994,1.2992,1.3006,1.308,1.3135,1.3145,1.3158,1.3141,1.3166,1.3187,1.3183,1.3291,1.3266,1.3279,1.3311,1.3418,1.3423,1.3427,1.3444,1.3452,1.3459,0,0,0,0,0,0,1.2955,1.2999,1.2998,1.3062,1.3095,1.3134,1.3166,1.3166,1.3204,1.32,1.3215,1.3225,1.3284,1.3303,1.3274,1.3376,1.3353,1.336,1.3361,1.3369,1.3375,1.3369,1.3259,0,0,0,0,0,1.2965,1.3006,1.3042,1.3096,1.3112,1.3136,1.3161,1.3168,1.3203,1.3216,1.3242,1.3275,1.3317,1.3344,1.3384,1.345,1.346,1.3479,1.3485,1.349,1.3496,1.3533,1.3543,1.3444,1.3444,1.3444,0,0,1.2986,1.3015,1.304,1.3098,1.3125,1.3167,1.3148,1.3193,1.3225,1.3223,1.328,1.3301,1.3339,1.3402,1.3431,1.342,1.3525,1.3496,1.3499,1.3503,1.3539,1.3548,1.3556,1.3447,1.3447,1.3446,0,0,1.3045,1.3071,1.3118,1.3145,1.3186,1.3202,1.3213,1.3253,1.3266,1.3324,1.3324,1.3362,1.3433,1.3461,1.3484,1.3556,1.3553,1.3568,1.36,1.3636,1.3644,1.3651,1.3677,1.3686,1.3574,1.3574,1.3574,0,1.3065,1.3129,1.3143,1.3189,1.3215,1.3216,1.3264,1.329,1.3341,1.3359,1.3346,1.3436,1.3462,1.3532,1.355,1.3568,1.3582,1.3563,1.3642,1.3649,1.3655,1.368,1.369,1.3576,1.3576,1.3575,1.3575,0,1.3153,1.3197,1.3231,1.3281,1.3311,1.3358,1.3379,1.3407,1.3413,1.343,1.3489,1.3521,1.3568,1.3585,1.359,1.3656,1.3648,1.3638,1.3615,1.3666,1.369,1.3699,1.3578,1.3578,1.3577,1.3577,0,0,1.322,1.3278,1.329,1.3313,1.3358,1.3393,1.344,1.3486,1.3511,1.3547,1.3587,1.3648,1.364,1.3666,1.3675,1.3706,1.3762,1.3693,1.3694,1.3705,1.3837,1.3844,1.3855,1.3761,1.3762,1.3764,1.3834,0,1.3284,1.3368,1.3383,1.3456,1.3498,1.35,1.3542,1.3574,1.3592,1.363,1.365,1.3693,1.3678,1.3695,1.3726,1.3748,1.3788,1.3743,1.3799,1.38,1.3789,1.3867,1.3875,1.3939,1.3843,1.3845,1.3846,0,1.337,1.3408,1.3487,1.3527,1.3545,1.3582,1.3626,1.3663,1.37,1.371,1.3741,1.3746,1.3796,1.3771,1.384,1.3809,1.3832,1.3847,1.385,1.3855,1.3826,1.3875,1.396,1.397,1.3861,1.3859,1.3858,0,1.3411,1.3483,1.3539,1.3559,1.3607,1.3634,1.3655,1.369,1.3718,1.3756,1.3774,1.3818,1.3842,1.3876,1.3893,1.3873,1.3961,1.3937,1.3972,1.3971,1.399,1.3989,1.408,1.4005,1.4005,1.4005,1.4005,0,1.3481,1.3529,1.3559,1.3593,1.3647,1.3664,1.3717,1.3737,1.3769,1.3808,1.3813,1.3849,1.3869,1.3909,1.3923,1.3978,1.3989,1.3999,1.4002,1.3999,1.3998,1.4014,1.401,1.4007,1.4007,1.4006,1.4006,0,1.3537,1.3558,1.362,1.3661,1.3673,1.3711,1.3747,1.378,1.3799,1.3848,1.3861,1.3889,1.3936,1.3957,1.4014,1.4024,1.4087,1.4087,1.4075,1.4076,1.411,1.4106,1.4215,1.423,1.4145,1.4146,1.4147,0,1.358,1.3617,1.3663,1.3689,1.3712,1.3754,1.3783,1.3801,1.383,1.3875,1.3904,1.3951,1.399,1.4065,1.4091,1.4135,1.4136,1.4172,1.4143,1.4139,1.4137,1.4135,1.4139,1.4177,1.4177,1.4178,1.4179,0,1.3654,1.3664,1.3704,1.3749,1.3783,1.3819,1.3854,1.3875,1.3899,1.3931,1.398,1.401,1.4069,1.4116,1.4163,1.4185,1.4186,1.4188,1.4198,1.4195,1.4186,1.4192,1.4089,1.4185,1.4184,1.4184,1.4183,1.4183,1.3705,1.3738,1.3776,1.3822,1.385,1.3883,1.3918,1.3941,1.3982,1.4032,1.404,1.4092,1.4129,1.4191,1.4215,1.4256,1.4248,1.4263,1.4266,1.427,1.4272,1.418,1.4265,1.4265,1.4264,1.4264,1.4264,0,1.378,1.3805,1.3846,1.3896,1.3932,1.3931,1.397,1.4,1.4046,1.408,1.4119,1.4175,1.4221,1.4251,1.4298,1.4325,1.4326,1.4336,1.4334,1.434,1.4277,1.4264,1.4334,1.4334,1.4334,1.4334,1.4334,1.4334,1.3823,1.388,1.3894,1.3965,1.399,1.4041,1.4064,1.4095,1.4122,1.4185,1.4224,1.4243,1.4276,1.4326,1.4368,1.4376,1.4393,1.4403,1.441,1.4351,1.4344,1.4337,1.4324,1.4407,1.4407,1.447,1.447,1.4471]},{"header":{"parameterUnit":"m.s-1","parameterCategory":1,"la1":30.2991,"la2":30.254,"lo1":-89.0895,"lo2":-89.0444,"dy":0.0017,"dx":0.0017,"nx":28,"ny":28,"refTime":"2024-02-17T09:00:00:Z","depth":0,"parameterNumber":3,"parameterNumberName":"V-component_of_WINDS"},"data":[0,0,0,0,0,0,0,0,0,0,0,0,0,0,0,0,0,0,0,0,0,0,0,0,0,0,0,0,0,0,0,0,0,0,0,0,0,0,0,0,0,0,0,0,0,0,0,0,0,0,0,0,0,0,0,0,0,0,1.995,1.995,0,1.9914,1.9913,1.9913,1.9858,1.9857,1.9856,1.9855,1.9818,1.9818,1.9818,0,0,0,0,0,0,0,0,0,0,0,0,0,1.9972,1.9972,1.995,1.995,1.9949,1.9914,1.9913,1.9913,1.9858,1.9857,1.9856,1.9855,1.9818,1.9818,1.9818,0,0,0,0,0,0,0,0,0,0,0,0,0,1.9952,1.9972,1.995,1.9918,1.9915,1.9914,1.9913,1.9913,1.9859,1.9857,1.9856,1.9854,1.9818,1.9818,1.9818,1.9846,0,0,1.9818,1.9818,0,0,0,0,0,0,0,0,1.9953,1.9951,1.9923,1.992,1.9916,1.9889,1.9907,1.9891,1.9859,1.988,1.9855,1.9854,1.9843,1.9841,1.9837,1.9845,1.9843,1.9818,1.9818,1.9817,1.9817,0,0,0,0,0,0,0,1.9955,1.9953,1.9936,1.9923,1.9919,1.9905,1.9901,1.9904,1.987,1.9878,1.9874,1.987,1.9841,1.9837,1.9836,1.9842,1.9818,1.9818,1.9817,1.9817,1.9871,1.9873,0,0,0,0,0,0,1.9961,1.9954,1.9937,1.9935,1.9932,1.9906,1.9901,1.9899,1.987,1.9864,1.9872,1.9868,1.9838,1.9836,1.9834,1.9866,1.9817,1.9817,1.9817,1.987,1.9872,1.9873,0,0,0,0,0,0,1.9962,1.996,1.9938,1.9943,1.9939,1.9907,1.9906,1.9899,1.9896,1.9865,1.9859,1.9874,1.9837,1.9834,1.9844,1.9864,1.9817,1.9817,1.9868,1.987,1.9872,1.9929,0,0,0,0,0,0,1.9962,1.9961,1.9971,1.9944,1.9939,1.9949,1.9907,1.99,1.9896,1.9891,1.9866,1.986,1.9836,1.9844,1.9844,1.9863,1.9817,1.9866,1.9869,1.9872,1.9925,1.9933,1.9939,0,0,0,0,0,1.9963,1.9988,1.9972,1.997,1.9952,1.995,1.9947,1.9919,1.9898,1.9908,1.9888,1.9861,1.9861,1.9846,1.9844,1.9864,1.9865,1.9868,1.9871,1.9922,1.9931,1.9939,0,0,0,0,0,0,2.0019,1.9984,1.9966,1.9982,1.997,1.9941,1.9953,1.9929,1.9922,1.9918,1.9882,1.9877,1.9891,1.9878,1.9861,1.989,1.9859,1.9862,1.9898,1.9906,1.9913,1.9917,1.9817,0,0,0,0,0,2.0033,2.0034,2.0004,2.0022,2.0016,1.9986,1.9984,1.9963,1.9948,1.9942,1.9923,1.991,1.9907,1.9906,1.9901,1.9923,1.9917,1.9935,1.9942,1.9948,1.9952,1.9963,1.9971,1.9884,1.9884,1.9884,0,0,2.0062,2.0044,2.0047,2.0033,2.002,2.0022,1.9982,1.9986,1.9987,1.9943,1.9951,1.9936,1.9919,1.9934,1.994,1.9924,1.9974,1.9953,1.9958,1.9958,1.9967,1.9975,1.9983,1.9887,1.9886,1.9886,0,0,2.0117,2.0103,2.0117,2.0105,2.0086,2.0066,2.0069,2.0044,2.0033,2.004,2.0006,2.0007,2.0003,1.9992,1.9986,2.0036,2.0011,2.0036,2.0073,2.0084,2.0091,2.0097,2.0115,2.0122,2.0039,2.0039,2.0039,0,2.0156,2.0159,2.0126,2.0133,2.0128,2.0087,2.0101,2.0091,2.0072,2.0069,2.0051,2.0045,2.003,2.0043,2.0055,2.0051,2.0054,2.0039,2.0093,2.0098,2.0103,2.012,2.0127,2.0042,2.0042,2.0042,2.0041,0,2.0208,2.021,2.0223,2.0206,2.0202,2.0211,2.0181,2.0181,2.016,2.0141,2.0149,2.013,2.0121,2.0122,2.0102,2.0132,2.0122,2.0099,2.0068,2.0115,2.0131,2.0137,2.0047,2.0046,2.0045,2.0044,0,0,2.0297,2.0262,2.0267,2.0259,2.0236,2.0237,2.0244,2.0236,2.0237,2.0224,2.0231,2.0227,2.0205,2.0199,2.0176,2.0186,2.0227,2.0161,2.016,2.0175,2.026,2.0279,2.0287,2.021,2.0211,2.0212,2.0262,0,2.0348,2.036,2.0331,2.035,2.0352,2.0313,2.032,2.0306,2.0289,2.0288,2.0268,2.0267,2.0238,2.0233,2.0241,2.0221,2.0244,2.0217,2.0216,2.0216,2.0223,2.0295,2.0315,2.0362,2.0268,2.0269,2.0269,0,2.0409,2.0401,2.042,2.0395,2.0395,2.0402,2.0391,2.039,2.0374,2.036,2.0353,2.0327,2.0332,2.0302,2.0309,2.0291,2.0289,2.0279,2.028,2.028,2.0247,2.0297,2.0377,2.0385,2.0279,2.0278,2.0277,0,2.0474,2.0467,2.0477,2.0472,2.0443,2.0449,2.0437,2.0419,2.0415,2.0406,2.0404,2.0395,2.0391,2.0385,2.0357,2.0337,2.0368,2.0335,2.0358,2.0359,2.0367,2.0367,2.0448,2.0364,2.0364,2.0364,2.0364,0,2.0534,2.0548,2.0506,2.0513,2.0527,2.0493,2.0508,2.0492,2.0477,2.0479,2.0445,2.0449,2.0411,2.041,2.0388,2.0399,2.0396,2.0386,2.038,2.039,2.0391,2.0389,2.0385,2.0366,2.0365,2.0365,2.0365,0,2.0609,2.0582,2.0591,2.0563,2.0556,2.0568,2.0544,2.0549,2.0529,2.0533,2.0532,2.0501,2.0498,2.047,2.0461,2.0446,2.0465,2.0452,2.0471,2.0467,2.0492,2.049,2.0575,2.0584,2.0493,2.0494,2.0495,0,2.065,2.066,2.0633,2.0632,2.0622,2.0622,2.0618,2.0585,2.0583,2.0564,2.0572,2.0566,2.056,2.0558,2.0534,2.0527,2.0515,2.0545,2.0514,2.0523,2.0516,2.0517,2.0518,2.0552,2.0553,2.0554,2.0555,0,2.0726,2.0712,2.0708,2.0699,2.0696,2.0687,2.0677,2.0678,2.0642,2.0641,2.0638,2.0633,2.0624,2.0619,2.0608,2.0595,2.057,2.0565,2.057,2.058,2.0591,2.0586,2.049,2.0563,2.0562,2.0562,2.0561,2.0561,2.0786,2.0792,2.0774,2.0771,2.076,2.0751,2.0754,2.0734,2.0731,2.0722,2.0702,2.0702,2.0685,2.0667,2.0657,2.0656,2.0641,2.0648,2.065,2.0652,2.0658,2.059,2.0654,2.0654,2.0653,2.0653,2.0653,0,2.086,2.0847,2.0844,2.083,2.0828,2.0803,2.079,2.079,2.079,2.0776,2.0771,2.0768,2.0763,2.0739,2.0731,2.0735,2.0723,2.0734,2.0734,2.0732,2.0672,2.0669,2.0744,2.0744,2.0744,2.0744,2.0744,2.0744,2.0899,2.0909,2.0893,2.0897,2.0883,2.0883,2.0878,2.087,2.0858,2.0856,2.0852,2.0836,2.0818,2.0809,2.0803,2.0796,2.0796,2.0811,2.08,2.0745,2.0736,2.0728,2.0725,2.0811,2.0811,2.0861,2.0861,2.0862]}]]